P/2003 O2 ( LINEAR )

Japanese version
Home page
Updated on June 7, 2011

---------------------------------------------------------------------

* Profile

Discovery Date July 29, 2003
Magnitude 18.6 mag
Discoverer Lincoln Laboratory Near-Earth Asteroid Research project

* Pictures

* Orbital Elements

Epoch 2003 Aug. 29.0 TT = JDT 2452880.5
T 2003 Sept. 5.80931 TT                                 MPC
q   1.5054544            (2000.0)            P               Q
n   0.11235820     Peri.   32.72085     +0.94941215     -0.30683001
a   4.2533671      Node   344.71137     +0.20468597     +0.76612911
e   0.6460559      Incl.   14.69126     +0.23816009     +0.56471367
P   8.77
From 433 observations 2003 July 30-Dec. 15, mean residual 0".6.

* Finding Charts

* Magnitudes Graph

        m1 = 12.0 + 5 log d + 25.0 log r

---------------------------------------------------------------------

The orbital elements are published on M.P.E.C. 2011-K13.
The charts are made with StellaNavigator Ver.2.0 for Windows (AstroArts / ASCII).
The magnitudes graphs are made with Comet for Windows.

---------------------------------------------------------------------

Copyright(C) Seiichi Yoshida (comet@aerith.net). All rights reserved.